Location: Girenbad
(47.4524°N, 8.8479°E)
Time: 19:54:22
(UTC+00:00)

Daily predictions for brighter satellites

Satellite Brightness Start Highest point End
(mag) Time Altitude Azimuth Time Altitude Azimuth Time Altitude Azimuth
Cosmos 2333 Rocket 2.4 16:27:39 10° NNW 16:33:18 54° ENE 16:38:51 10° SE
Cosmos 372 Rocket 4.4 16:29:08 10° S 16:33:57 44° ESE 16:38:50 10° NE
Feng Yun 1-1 Rocket 4.4 16:28:38 10° SSE 16:34:17 67° ENE 16:40:05 10° N
Cosmos 2237 Rocket 3.2 16:30:22 10° N 16:34:58 25° NE 16:39:34 10° E
Cosmos 1174 4.2 16:34:05 10° NW 16:37:07 54° WSW 16:40:33 10° SSE
PSLV R/B 4.0 16:33:10 10° NNE 16:37:13 63° ESE 16:41:15 10° S
Starlink AQ 3.7 16:36:08 10° SSW 16:38:48 34° SE 16:41:30 10° ENE
Cosmos 1674 2.6 16:35:25 10° S 16:39:07 74° E 16:42:51 10° NNE
Nadezhda 3 Rocket 4.4 16:34:21 10° N 16:40:12 39° ENE 16:46:05 10° SE
Meteor 1-24 Rocket 3.9 16:35:46 10° SSE 16:40:49 47° E 16:45:58 10° NNE
Starlink AR 3.4 16:38:52 10° SSW 16:41:12 33° SE 16:43:33 10° ENE
Starlink AS 3.6 16:38:37 10° SSW 16:41:19 36° SE 16:44:02 10° ENE
Starlink BA 3.6 16:38:50 10° SSW 16:41:32 36° SE 16:44:14 10° ENE
Starlink AU 3.6 16:39:02 10° SSW 16:41:45 36° SE 16:44:28 10° ENE
In-Cosmos 22 4.5 16:36:32 10° SSW 16:41:52 70° WNW 16:47:10 10° N
Starlink AT 3.6 16:39:16 10° SSW 16:41:58 36° SE 16:44:41 10° ENE
Starlink BB 3.6 16:39:29 10° SSW 16:42:11 37° SE 16:44:54 10° ENE
Starlink BC 3.6 16:39:42 10° SSW 16:42:25 37° SE 16:45:08 10° ENE
Starlink BK 3.6 16:39:55 10° SSW 16:42:38 37° SE 16:45:21 10° ENE
Starlink AY 3.6 16:40:08 10° SSW 16:42:51 37° SE 16:45:35 10° ENE
Starlink AW 3.6 16:40:21 10° SSW 16:43:04 37° SE 16:45:48 10° ENE
Cosmos 1461 3.0 16:38:52 10° NNW 16:43:08 61° NE 16:47:33 10° SE
Starlink BJ 3.6 16:40:32 10° SSW 16:43:14 37° SE 16:45:59 10° ENE
Starlink AV 3.5 16:40:44 10° SSW 16:43:28 38° SE 16:46:12 10° ENE
Starlink BD 3.5 16:40:57 10° SSW 16:43:41 38° SE 16:46:25 10° ENE
COSMO-SKYMED 1 3.8 16:40:16 10° NE 16:43:42 22° E 16:47:07 10° SE
Starlink BE 3.5 16:41:09 10° SW 16:43:54 38° SE 16:46:39 10° ENE
Starlink BM 3.5 16:41:23 10° SW 16:44:07 38° SE 16:46:52 10° ENE
Starlink AX 3.5 16:41:36 10° SW 16:44:20 38° SE 16:47:05 10° ENE
Starlink BH 3.5 16:41:50 10° SW 16:44:34 38° SE 16:47:19 10° ENE
Cosmos 1908 3.3 16:40:47 10° N 16:44:41 85° W 16:48:31 10° S
Starlink AZ 3.5 16:42:03 10° SW 16:44:47 39° SE 16:47:32 10° ENE
Starlink BG 3.5 16:42:16 10° SW 16:45:01 39° SE 16:47:46 10° ENE
Cosmos 1340 Rocket 3.8 16:41:46 10° NNE 16:45:04 25° ENE 16:48:22 10° SE
Starlink BF 3.5 16:42:29 10° SW 16:45:13 39° SE 16:47:58 10° ENE
Starlink BL 3.5 16:42:40 10° SW 16:45:24 39° SE 16:48:10 10° ENE
Starlink AH 3.5 16:42:53 10° SW 16:45:38 39° SE 16:48:23 10° ENE
Starlink AC 3.5 16:43:06 10° SW 16:45:51 40° SE 16:48:36 10° ENE
Cosmos 1300 3.4 16:42:35 10° N 16:46:03 32° ENE 16:49:31 10° SE
Starlink X 3.5 16:43:18 10° SW 16:46:04 40° SE 16:48:49 10° ENE
Starlink AE 3.5 16:43:31 10° SW 16:46:17 40° SE 16:49:02 10° ENE
Starlink Z 3.4 16:43:45 10° SW 16:46:30 40° SE 16:49:14 10° ENE
Starlink AK 3.4 16:43:59 10° SW 16:46:44 40° SE 16:49:28 10° ENE
Starlink AL 3.4 16:44:12 10° SW 16:46:57 40° SE 16:49:40 10° ENE
Starlink AD 3.4 16:44:23 10° SW 16:47:09 41° SE 16:49:52 10° ENE
Meteor 2-5 Rocket 3.7 16:41:47 10° S 16:47:16 74° E 16:52:52 10° NNE
Starlink Y 3.4 16:44:50 10° SW 16:47:36 41° SE 16:50:18 11° ENE
Okean-O 2.9 16:43:27 10° SE 16:47:41 45° ENE 16:51:56 10° N
Starlink AG 3.4 16:45:03 10° SW 16:47:49 41° SE 16:50:30 11° ENE
Starlink W 3.4 16:45:14 10° SW 16:48:01 42° SE 16:50:43 11° ENE
Starlink AJ 3.4 16:45:28 10° SW 16:48:14 42° SE 16:50:55 11° ENE
CZ-4B R/B 3.8 16:46:17 10° NNW 16:48:35 20° WNW 16:50:53 10° WSW
Starlink AM 3.4 16:45:53 10° SW 16:48:40 42° SE 16:51:20 11° ENE
Starlink AP 3.4 16:46:06 10° SW 16:48:53 42° SE 16:51:33 11° ENE
Starlink AA 3.4 16:46:19 10° SW 16:49:06 42° SE 16:51:45 11° ENE
Timation 2 Rocket 4.3 16:43:30 10° S 16:49:12 45° ESE 16:55:10 10° NE
Starlink AF 3.4 16:46:33 10° SW 16:49:20 43° SE 16:51:59 11° ENE
Starlink AB 3.3 16:46:47 10° SW 16:49:33 43° SE 16:52:11 11° ENE
Starlink AN 3.3 16:46:59 10° SW 16:49:46 43° SE 16:52:23 11° ENE
Cosmos 1726 3.7 16:46:26 10° NNW 16:49:51 39° W 16:53:16 10° SSW
Okean O Rocket 3.6 16:48:07 10° SSW 16:52:09 35° W 16:56:16 10° NNW
Cosmos 2298 Rocket 4.1 16:47:39 10° S 16:52:53 66° ESE 16:58:10 10° NNE
SL-16 R/B 3.7 16:50:50 10° N 16:54:28 17° NE 16:57:53 11° ENE
SL-14 R/B 3.8 16:51:19 10° SSE 16:55:04 40° E 16:58:49 10° NNE
KORONAS-FOTON 3.9 16:51:50 10° SSW 16:55:37 79° W 16:59:25 10° N
CSL-04 Rocket 4.5 16:51:30 10° ESE 16:56:12 30° ENE 17:00:57 10° N
USA 267 3.6 16:51:47 10° NE 16:58:10 59° NNW 17:04:33 10° W
NOSS 0 Rocket 4.1 16:52:09 10° NNW 16:58:13 50° NE 17:04:14 10° SE
Starlink T 3.0 16:55:46 10° SW 16:58:37 52° SE 17:00:55 14° ENE
Cosmos 1271 Rocket 2.7 16:55:01 10° S 16:58:40 57° E 17:02:22 10° NNE
FengYun 1-2 T 4.4 16:53:29 10° SE 16:58:54 51° ENE 17:04:22 10° N
Cosmos 1626 Rocket 3.8 16:54:54 10° SSE 16:59:04 47° E 17:03:13 10° NNE
Starlink N 3.0 16:56:53 10° SW 16:59:44 53° SE 17:02:00 15° ENE
Cosmos 2219 4.3 16:56:29 10° SSE 17:00:48 23° ESE 17:04:54 11° NE
Starlink Q 3.0 16:58:19 10° SW 17:01:10 55° SSE 17:03:24 15° ENE
ATLAS 5 CENTAUR R/B 2.2 16:58:09 10° WSW 17:02:19 52° NW 17:07:04 10° NE
Cosmos 1455 4.1 17:00:44 10° NE 17:01:33 12° NE 17:01:33 12° NE
Starlink P 2.9 16:59:32 10° SW 17:02:24 56° SSE 17:04:35 16° ENE
Ariane Rocket 4.4 16:59:44 10° E 17:02:46 16° NE 17:05:48 10° NNE
Cosmos 494 Rocket 4.3 16:58:14 10° N 17:03:07 42° ENE 17:07:57 10° SE
Starlink U 2.9 17:00:46 10° SW 17:03:37 58° SSE 17:05:46 16° ENE
Cosmos 1939 Rocket 4.1 17:01:24 10° ESE 17:04:16 20° ENE 17:07:09 10° NNE
Starlink B 2.9 17:02:01 10° SW 17:04:53 59° SSE 17:06:59 17° ENE
Cosmos 2322 4.4 17:02:25 10° NNW 17:07:59 59° WSW 17:13:32 10° S
Starlink D 2.8 17:06:08 10° SW 17:09:04 65° SSE 17:11:02 19° ENE
Cosmos 1626 2.2 17:06:46 10° S 17:10:22 52° E 17:14:00 10° NNE
Starlink S 2.8 17:07:27 10° SW 17:10:22 67° SSE 17:12:18 19° ENE
Starlink C 2.7 17:08:42 10° SW 17:11:39 69° SSE 17:13:32 20° ENE
Starlink E 2.7 17:10:03 10° SW 17:12:59 70° SSE 17:14:49 21° ENE
Starlink J 2.7 17:11:21 10° SW 17:14:18 72° SSE 17:16:05 21° ENE
ATLAS CENTAUR R/B 3.5 17:13:17 10° N 17:14:35 11° NNE 17:15:32 10° NNE
Cosmos 1242 Rocket 2.4 17:11:43 10° S 17:15:10 71° E 17:18:43 10° NNE
YAOGAN 6 2.5 17:11:49 10° SSE 17:15:29 68° ENE 17:19:08 10° N
Starlink V 2.7 17:12:39 10° SW 17:15:36 74° SSE 17:17:21 22° ENE
Meteor 2-1 Rocket 4.3 17:10:15 10° N 17:15:37 50° ENE 17:20:58 10° SSE
Starlink H 2.7 17:13:59 10° SW 17:16:57 76° SSE 17:18:38 23° ENE
NOAA 12 4.3 17:11:57 10° S 17:17:11 78° WSW 17:22:27 10° NNW
Cosmos 1980 3.9 17:11:40 10° NNW 17:17:11 47° NE 17:22:40 10° SE
Cosmos 1607 3.9 17:11:28 10° SSW 17:17:35 75° ESE 17:23:30 11° NE
Cosmos 2297 Rocket 3.3 17:13:36 10° SSE 17:17:54 23° ESE 17:20:27 17° ENE
Starlink F 2.7 17:15:20 10° SW 17:18:17 78° SSE 17:19:56 24° ENE
SMAP 4.3 17:14:33 10° S 17:19:02 46° W 17:23:32 10° NNW
Starlink G 2.7 17:16:39 10° WSW 17:19:37 80° SSE 17:21:13 24° ENE
H-2A R/B 4.5 17:17:00 10° SSW 17:20:34 37° W 17:24:11 10° NNW
Starlink L 2.6 17:17:59 10° WSW 17:20:57 82° SSE 17:22:30 25° ENE
USA 32 4.4 17:16:58 10° SSE 17:21:50 41° E 17:26:42 10° NNE
SJ 16-02 3.7 17:18:50 10° WSW 17:22:11 21° NW 17:25:33 10° N
Starlink A 2.6 17:19:20 10° WSW 17:22:18 84° SSE 17:23:48 26° ENE
Starlink R 2.6 17:20:42 10° WSW 17:23:40 86° SE 17:25:07 27° ENE
Starlink K 2.6 17:22:00 10° WSW 17:24:58 88° SSE 17:26:23 28° ENE
CZ-4 R/B 4.4 17:21:52 10° SSE 17:25:57 64° ENE 17:30:02 10° N
Starlink M 2.6 17:23:18 10° WSW 17:26:16 90° SSW 17:27:38 29° ENE
Cosmos 2150 Rocket 4.2 17:21:31 10° SSW 17:26:40 74° WNW 17:31:51 10° NNE
COSMOS 2428 3.1 17:22:57 10° NNW 17:28:41 69° WSW 17:34:22 10° SSE
CZ-4 R/B 1.3 17:25:19 10° SSE 17:29:16 62° ENE 17:33:21 10° N
Cosmos 2227 Rocket 3.2 17:25:13 10° SSE 17:29:46 26° ESE 17:31:48 21° ENE
Cosmos 2219 Rocket 2.7 17:24:51 10° NNW 17:30:29 65° WSW 17:36:04 10° SSE
Meteor 2-17 Rocket 4.5 17:24:54 10° S 17:30:53 58° E 17:36:55 10° NNE
SKYMED 2 3.5 17:27:38 10° NNE 17:31:59 67° ESE 17:36:18 10° S
NOAA 11 4.3 17:26:52 10° SE 17:32:11 52° ENE 17:37:31 10° N
Cosmos 2184 Rocket 4.5 17:29:24 10° SSW 17:35:31 62° WNW 17:41:39 10° N
Cosmos 1241 Rocket 4.4 17:36:19 10° NW 17:42:34 81° NE 17:48:49 10° SE
Cosmos 2154 Rocket 4.1 17:36:59 10° S 17:43:17 84° W 17:49:35 10° N
Cosmos 1812 Rocket 3.8 17:40:56 10° NNW 17:45:24 73° W 17:49:52 10° S
Cosmos 1125 Rocket 3.5 17:40:36 10° SSW 17:45:48 87° WNW 17:50:56 11° NNE
ATLAS 5 CENTAUR R/B 4.0 17:43:21 10° NNW 17:46:56 28° NE 17:49:39 23° ENE
USA 116 3.3 17:50:27 50° E 17:50:38 51° E 17:53:41 10° S
YAOGAN 1 2.5 17:49:29 10° SSE 17:53:49 88° ENE 17:58:10 10° NNW
Cosmos 724 4.4 17:51:06 10° SSW 17:56:54 55° ESE 17:59:41 30° NE
Cosmos 1269 Rocket 4.0 17:55:38 10° NNW 18:00:57 85° WSW 18:06:14 10° SSE
IRS-1A Rocket 4.5 18:00:23 10° SE 18:05:56 49° ENE 18:11:24 10° N
CSL-04 Debris 4.2 18:00:57 10° SSE 18:06:20 80° WSW 18:11:46 10° NNW
Cosmos-2242 2.8 18:02:05 10° N 18:06:27 75° E 18:10:44 10° SSE
CZ-4C R/B 3.4 18:01:01 10° NW 18:08:09 62° WSW 18:16:14 10° SSE
NOSS 2-1 (E) 4.4 18:03:16 10° NW 18:08:32 67° NE 18:12:46 25° SE
CZ-2D R/B 3.2 18:06:15 10° S 18:10:04 82° WSW 18:13:56 10° NNW
Cosmos 2366 rocket 4.0 18:07:15 10° S 18:13:17 58° E 18:19:26 10° NNE
Starlink AQ 4.0 18:11:04 10° W 18:13:17 36° NW 18:13:17 36° NW
Meteor 2-10 Rocket 3.4 18:08:54 10° N 18:14:20 71° ENE 18:19:30 10° SSE
ISS -1.0 18:12:12 10° S 18:12:26 11° S 18:12:26 11° S
Starlink AS 4.2 18:13:36 10° W 18:15:42 34° NW 18:15:42 34° NW
Starlink BA 4.2 18:13:49 10° W 18:15:54 33° NW 18:15:54 33° NW
Starlink AU 4.2 18:14:02 10° W 18:16:06 33° WNW 18:16:06 33° WNW
Starlink AT 4.2 18:14:16 10° W 18:16:20 33° WNW 18:16:20 33° WNW
Cosmos 2333 Rocket 4.3 18:12:30 10° NW 18:17:14 27° WSW 18:21:55 10° SSW
Starlink BB 4.3 18:14:29 10° W 18:16:32 33° WNW 18:16:32 33° WNW
Starlink BC 4.3 18:14:42 10° W 18:16:45 33° WNW 18:16:45 33° WNW
Starlink BK 4.3 18:14:56 10° W 18:16:58 32° WNW 18:16:58 32° WNW
Starlink AY 4.3 18:15:09 10° W 18:17:11 32° WNW 18:17:11 32° WNW
ATLAS CENTAUR R/B 4.5 18:11:38 10° W 18:18:01 58° NNW 18:28:23 24° ENE
Starlink AW 4.3 18:15:22 10° W 18:17:23 32° WNW 18:17:23 32° WNW
Starlink BJ 4.3 18:15:34 10° W 18:17:34 32° WNW 18:17:34 32° WNW
Starlink AV 4.3 18:15:47 10° W 18:17:47 32° WNW 18:17:47 32° WNW
Starlink BD 4.4 18:16:00 10° W 18:18:00 32° WNW 18:18:00 32° WNW
Starlink BE 4.4 18:16:12 10° W 18:18:13 32° WNW 18:18:13 32° WNW
Starlink BM 4.4 18:16:27 10° W 18:18:25 31° WNW 18:18:25 31° WNW
Starlink AX 4.4 18:16:40 10° W 18:18:38 31° WNW 18:18:38 31° WNW
Cosmos 2237 Rocket 2.4 18:13:58 10° NNW 18:19:34 69° WSW 18:25:08 10° SSE
Starlink BH 4.4 18:16:54 10° W 18:18:51 31° WNW 18:18:51 31° WNW
Starlink AZ 4.4 18:17:07 10° W 18:19:04 31° WNW 18:19:04 31° WNW
COSMO-SKYMED 1 3.8 18:15:56 10° N 18:20:01 40° WNW 18:24:05 10° SW
Starlink BG 4.4 18:17:21 10° W 18:19:17 30° WNW 18:19:17 30° WNW
Starlink BF 4.5 18:17:34 10° W 18:19:29 30° WNW 18:19:29 30° WNW
Starlink BL 4.4 18:17:45 10° W 18:19:41 30° WNW 18:19:41 30° WNW
Starlink AH 4.5 18:17:59 10° W 18:19:53 30° WNW 18:19:53 30° WNW
Starlink AC 4.5 18:18:12 10° W 18:20:06 30° WNW 18:20:06 30° WNW
Starlink AE 4.5 18:18:37 10° W 18:20:32 30° WNW 18:20:32 30° WNW
Meteor 1-21 Rocket 4.3 18:16:25 10° SSW 18:22:00 80° WNW 18:27:43 10° N
MOS 1 4.4 18:21:41 47° E 18:22:37 52° ENE 18:28:09 10° N
Cosmos 1953 Rocket 3.4 18:20:17 10° S 18:24:45 79° E 18:25:10 70° NE
Cosmos 1932 4.5 18:19:42 10° SSW 18:25:56 62° ESE 18:27:34 47° ENE
ADEOS Rocket 3.2 18:19:51 11° NNE 18:26:04 63° ESE 18:33:07 10° S
Cosmos 1758 Rocket 4.1 18:26:01 10° SSW 18:30:15 55° WNW 18:33:07 20° N
Cosmos 1727 Rocket 3.8 18:30:12 10° N 18:36:26 72° E 18:42:34 10° SSE
Cosmos 1455 3.7 18:34:37 10° NNW 18:36:37 28° NNW 18:36:37 28° NNW
ERBS 4.4 18:35:29 10° SW 18:36:50 22° SW 18:36:50 22° SW
Cosmos 1939 Rocket 4.2 18:35:17 10° SSW 18:38:56 39° W 18:42:40 10° NNW
SL-16 R/B 2.0 18:33:58 10° NNW 18:39:40 71° ENE 18:39:50 71° ENE
USA 267 4.1 18:38:39 32° NNE 18:40:32 39° N 18:46:30 10° WNW
Ariane Rocket 2.9 18:37:49 23° SSE 18:41:03 85° WSW 18:46:10 10° NNW
H-2A R/B 3.5 18:46:39 24° N 18:46:39 24° N 18:48:39 10° N
Cosmos 2219 3.6 18:38:57 10° SW 18:44:30 61° WNW 18:46:52 34° N
ATLAS 5 CENTAUR R/B 3.9 18:45:05 10° WNW 18:48:10 17° NNW 18:49:06 16° N
Cosmos 2082 4.1 18:43:16 10° SSW 18:47:23 48° SSE 18:47:23 48° SSE
SL-8 Rocket 4.4 18:45:01 10° SSW 18:51:15 62° WNW 18:57:30 10° N
ATLAS CENTAUR R/B 3.8 18:50:53 10° NNW 18:51:45 15° NNW 18:51:45 15° NNW
Cosmos 2251 Rocket 4.0 18:52:26 10° NNW 18:56:25 52° NNW 18:56:25 52° NNW
Cosmos 2297 Rocket 2.5 18:55:50 10° SW 19:01:27 63° WNW 19:02:19 55° NNW
Cosmos 2227 Rocket 2.7 19:07:52 10° SW 19:13:26 57° WNW 19:13:41 56° NW
